Location: Boda
(47.1872°N, 9.5454°E)
Time: 09:50:45
(UTC+00:00)

Cosmos 1727 Rocket - Pass Details

Date: 14 May 2021
Orbit: 960 x 997 km, 82.9° (Epoch: 16 June)

Event Time Altitude Azimuth Distance (km) Brightness Sun altitude
Exits shadow 00:55:11 36° 219° (SW) 1,520 4.5 -20.6°
Maximum altitude 00:57:42 60° 282° (WNW) 1,132 4.2 -20.5°
Drops below altitude 10° 01:04:00 10° 3° (N) 2,776 7.3 -20.0°
Sets 01:06:36 0° 7° (N) 3,729 8.3 -19.8°
